DAL295 OKKK-OMDB

Flight info

Callsign DAL295
Flight time N/A
Altitude 33000
Route BOXIK DCT LONOS DCT LOPOL DCT GOGRA DCT KOBOK DCT ALMOK DCT VELAK DCT TOMSO DCT NALPO DCT SOKAK DCT KIVUS DCT PUSOT P559 AMBOV Q322 DATOB
Aircraft MD88/M-SDFGIRWY/C

Departure

Time 2026-04-30 12:16
Airport Kuwait International Airport (OKKK)

Arrival

Time N/A
Airport Dubai International Airport (OMDB)
Time Latitude Longitude Altitude Speed Heading
2026-04-30 11:55 29.23848 47.96920 167 ft 0 kts 355°
2026-04-30 12:07 29.23825 47.96923 167 ft 4 kts 345°
2026-04-30 12:07 29.23802 47.96935 167 ft 4 kts 321°
2026-04-30 12:07 29.23789 47.96955 167 ft 4 kts 276°
2026-04-30 12:08 29.23790 47.96970 167 ft 0 kts 245°
2026-04-30 12:10 29.23785 47.96958 167 ft 4 kts 245°
2026-04-30 12:10 29.23766 47.96910 167 ft 9 kts 245°
2026-04-30 12:11 29.23731 47.96826 167 ft 14 kts 245°
2026-04-30 12:11 29.23685 47.96713 166 ft 17 kts 245°
2026-04-30 12:11 29.23605 47.96641 164 ft 17 kts 162°
2026-04-30 12:11 29.23491 47.96701 163 ft 20 kts 155°
2026-04-30 12:12 29.23349 47.96776 165 ft 27 kts 155°
2026-04-30 12:12 29.23170 47.96871 166 ft 30 kts 155°
2026-04-30 12:12 29.22981 47.96971 168 ft 28 kts 155°
2026-04-30 12:12 29.22804 47.97065 168 ft 29 kts 155°
2026-04-30 12:13 29.22623 47.97161 168 ft 29 kts 155°
2026-04-30 12:13 29.22443 47.97258 168 ft 29 kts 155°
2026-04-30 12:13 29.22262 47.97354 168 ft 29 kts 155°
2026-04-30 12:13 29.22081 47.97451 167 ft 29 kts 155°
2026-04-30 12:14 29.21909 47.97544 167 ft 27 kts 155°
2026-04-30 12:14 29.21732 47.97637 167 ft 31 kts 155°
2026-04-30 12:14 29.21515 47.97751 169 ft 37 kts 155°
2026-04-30 12:14 29.21307 47.97857 171 ft 25 kts 172°
2026-04-30 12:15 29.21269 47.97699 171 ft 28 kts 306°
2026-04-30 12:15 29.21418 47.97550 170 ft 31 kts 334°
2026-04-30 12:15 29.21797 47.97352 167 ft 93 kts 335°
2026-04-30 12:15 29.22575 47.96938 165 ft 151 kts 335°
2026-04-30 12:16 29.23648 47.96345 386 ft 185 kts 337°
2026-04-30 12:16 29.24868 47.95706 1059 ft 194 kts 336°
2026-04-30 12:16 29.26133 47.95208 1894 ft 194 kts 355°
2026-04-30 12:16 29.27442 47.95649 2636 ft 210 kts 36°
2026-04-30 12:17 29.27858 47.98909 3879 ft 252 kts 120°
2026-04-30 12:17 29.26773 48.00466 4773 ft 249 kts 126°
2026-04-30 12:17 29.25799 48.02126 5459 ft 257 kts 118°
2026-04-30 12:18 29.24885 48.03869 6343 ft 253 kts 121°
2026-04-30 12:18 29.23881 48.05650 6638 ft 277 kts 122°
2026-04-30 12:18 29.22816 48.07537 7222 ft 284 kts 123°
2026-04-30 12:18 29.21720 48.09398 8069 ft 280 kts 126°
2026-04-30 12:19 29.20596 48.11212 8680 ft 288 kts 127°
2026-04-30 12:19 29.19500 48.13229 9204 ft 299 kts 122°
2026-04-30 12:19 29.18443 48.15316 9762 ft 308 kts 123°
2026-04-30 12:19 29.17391 48.17401 10480 ft 304 kts 123°
2026-04-30 12:20 29.16331 48.19486 11227 ft 301 kts 124°
2026-04-30 12:20 29.15269 48.21567 11623 ft 315 kts 124°
2026-04-30 12:20 29.14104 48.23820 11841 ft 331 kts 124°
2026-04-30 12:20 29.12915 48.26110 12207 ft 345 kts 125°
2026-04-30 12:21 29.11638 48.28543 12218 ft 367 kts 125°
2026-04-30 12:21 29.10284 48.31099 12351 ft 384 kts 125°
2026-04-30 12:21 29.08864 48.33764 12526 ft 400 kts 125°